New Orleans NAS, LA

12:44 AM CDT on August 19, 2017 (GMT -0500)
New Orleans Naval Air Station

Weather History for KNBG - April, 2014

Change the Weather History Date:

Wednesday, April 30, 2014

  Actual Average Record
Temperature  
Mean Temperature 68 °F -  
Max Temperature 77 °F 79 °F 87 °F (2002)
Min Temperature 60 °F 62 °F 53 °F (2015)
Cooling Degree Days 4    
Growing Degree Days 18 (Base 50)    
Moisture  
Dew Point 55 °F    
Average Humidity 60    
Maximum Humidity 89    
Minimum Humidity 34    
Precipitation  
Precipitation 0.00 in - - ()
Sea Level Pressure  
Sea Level Pressure 29.91 in    
Wind  
Wind Speed 6 mph (NW)    
Max Wind Speed 12 mph    
Max Gust Speed 20 mph    
Visibility 10 miles    
Events Rain    
Averages and records for this station are not official NWS values.
T = Trace of Precipitation, MM = Missing Value Source: NWS Daily Summary

Daily Weather History Graph

Daily Weather History Graph

Search for Another Location

Airport or City:

Trip Planner

Search our weather history database for the weather conditions in past years. The results will help you decide how hot, cold, wet, or windy it might be!

Date:

Astronomy

Apr. 30, 2014 Rise Set
Actual Time 6:18 AM CDT 7:36 PM CDT
Civil Twilight 5:53 AM CDT 8:01 PM CDT
Nautical Twilight 5:23 AM CDT 8:32 PM CDT
Astronomical Twilight 4:52 AM CDT 9:03 PM CDT
Moon 7:21 AM CDT (4/30) 9:11 PM CDT (4/30)
Length of Visible Light 14h 08m
Length of Day
13h 18m
New Moon, 2% of the Moon is Illuminated
Apr 30
New Moon
May 6
First Quarter
May 14
Full
May 21
Last Quarter
May 28
New

Hourly Weather History & Observations

Time (CDT) Temp. Dew Point Humidity Pressure Visibility Wind Dir Wind Speed Gust Speed Precip Events Conditions
12:14 AM 77.0 °F 73.4 °F 89% 29.76 in 5.0 mi Variable 5.8 mph - N/A   Overcast
12:40 AM 75.2 °F 71.6 °F 89% 29.76 in 6.0 mi WSW 5.8 mph - N/A   Overcast
12:55 AM 75.9 °F 72.0 °F 87% 29.76 in 5.0 mi West 5.8 mph - N/A   Overcast
1:28 AM 73.4 °F 66.2 °F 78% 29.77 in 10.0 mi NNW 4.6 mph - N/A   Overcast
1:36 AM 73.4 °F 66.2 °F 78% 29.77 in 10.0 mi NNW 8.1 mph - N/A   Overcast
1:47 AM 73.4 °F 66.2 °F 78% 29.78 in 10.0 mi NW 8.1 mph - N/A Rain Light Rain
1:55 AM 73.0 °F 66.0 °F 79% 29.78 in 10.0 mi Variable 6.9 mph - N/A Rain Light Rain
2:55 AM 72.0 °F 61.0 °F 68% 29.79 in 10.0 mi NNW 8.1 mph 16.1 mph N/A   Overcast
3:55 AM 72.0 °F 55.0 °F 55% 29.80 in 10.0 mi North 9.2 mph - N/A   Overcast
4:55 AM 72.0 °F 51.1 °F 48% 29.81 in 10.0 mi NNW 9.2 mph 17.3 mph N/A   Overcast
5:55 AM 72.0 °F 46.9 °F 41% 29.85 in 10.0 mi NNW 8.1 mph - N/A   Overcast
6:13 AM 71.6 °F 50.0 °F 46% 29.86 in 10.0 mi North 9.2 mph - N/A   Overcast
6:55 AM 70.0 °F 50.0 °F 49% 29.87 in 10.0 mi Variable 4.6 mph 16.1 mph N/A   Overcast
7:55 AM 68.0 °F 50.0 °F 52% 29.92 in 10.0 mi North 8.1 mph 19.6 mph N/A   Mostly Cloudy
8:55 AM 70.0 °F 46.9 °F 44% 29.94 in 10.0 mi North 8.1 mph 16.1 mph N/A   Scattered Clouds
9:55 AM 71.1 °F 48.0 °F 44% 29.98 in 10.0 mi NNW 11.5 mph 18.4 mph N/A   Scattered Clouds
10:55 AM 73.0 °F 46.0 °F 38% 29.99 in 10.0 mi Variable 5.8 mph - N/A   Mostly Cloudy
11:55 AM 73.9 °F 46.9 °F 38% 29.98 in 10.0 mi Variable 5.8 mph - N/A   Mostly Cloudy
12:55 PM 75.0 °F 45.0 °F 34% 29.97 in 10.0 mi Variable 5.8 mph - N/A   Mostly Cloudy
1:55 PM 75.0 °F 48.0 °F 38% 29.96 in 10.0 mi West 5.8 mph - N/A   Mostly Cloudy
2:55 PM 75.9 °F 48.0 °F 37% 29.99 in 10.0 mi WSW 6.9 mph - N/A   Mostly Cloudy
3:55 PM 73.9 °F 48.0 °F 40% 29.96 in 10.0 mi NW 5.8 mph - N/A   Mostly Cloudy
4:55 PM 72.0 °F 48.9 °F 44% 29.96 in 10.0 mi North 4.6 mph - N/A   Mostly Cloudy
5:55 PM 72.0 °F 48.9 °F 44% 29.97 in 10.0 mi NNW 8.1 mph - N/A   Mostly Cloudy
6:55 PM 70.0 °F 48.0 °F 46% 29.98 in 10.0 mi Variable 4.6 mph - N/A   Mostly Cloudy
7:55 PM 66.9 °F 50.0 °F 54% 30.02 in 10.0 mi NW 4.6 mph - N/A Rain Light Rain
8:55 PM 62.1 °F 55.0 °F 78% 30.01 in 10.0 mi Calm Calm - N/A Rain Light Rain
9:29 PM 60.8 °F 57.2 °F 88% 30.01 in 10.0 mi Calm Calm - N/A   Mostly Cloudy
9:55 PM 62.1 °F 57.9 °F 86% 30.03 in 10.0 mi Calm Calm - N/A   Mostly Cloudy
10:55 PM 62.1 °F 57.9 °F 86% 30.05 in 10.0 mi Calm Calm - N/A   Mostly Cloudy
11:56 PM 62.6 °F 57.2 °F 82% 30.07 in - Calm Calm - N/A   Unknown